Location: Izdebno
(52.6670°N, 16.2170°E)
Time: 12:43:51
(UTC+01:00)

SR - All Passes

Search period start: 23 February 2024 00:00
Search period end: 04 March 2024 00:00
Orbit: 573 x 868 km, 66.7° (Epoch: 22 February)

Date Brightness Start Highest point End Pass type
(mag) Time Alt. Az. Time Alt. Az. Time Alt. Az.
23 Feb - 01:40:36 10° WNW 01:43:42 16° WSW 01:46:37 10° SW night (unlit)
23 Feb - 14:32:14 10° SSE 14:36:22 20° ESE 14:40:26 10° ENE daylight
23 Feb - 16:11:50 10° SW 16:17:42 85° SE 16:23:20 10° NE daylight
23 Feb - 17:55:07 10° W 18:00:15 32° NNW 18:05:10 10° NNE visible
23 Feb - 19:39:54 10° NW 19:43:49 19° N 19:47:34 10° NE visible
23 Feb - 21:23:22 10° NNW 21:27:38 23° NNE 21:31:39 10° ENE visible
23 Feb - 23:05:27 10° NW 23:10:41 57° NE 23:15:27 10° ESE visible
24 Feb - 00:47:52 10° NW 00:52:19 30° WSW 00:56:26 10° S night (unlit)
24 Feb - 13:43:49 10° ESE 13:45:05 11° ESE 13:46:20 10° E daylight
24 Feb - 15:20:16 10° SSW 15:25:55 52° ESE 15:31:22 10° NE daylight
24 Feb - 17:02:28 10° WSW 17:08:01 45° NW 17:13:21 10° NE daylight
24 Feb - 18:47:01 10° WNW 18:51:16 21° NNW 18:55:21 10° NNE visible
24 Feb - 20:31:13 10° NW 20:35:08 19° N 20:38:50 10° NE visible
24 Feb - 22:13:35 10° NNW 22:18:33 37° NE 22:23:06 10° ESE visible
24 Feb - 23:55:40 10° NW 00:00:45 56° WSW 00:05:23 10° SSE visible
25 Feb - 14:29:17 10° S 14:34:17 30° ESE 14:39:10 10° NE daylight
25 Feb - 16:10:08 10° SW 16:15:57 69° NW 16:21:31 10° NE daylight
25 Feb - 17:54:04 10° W 17:58:49 26° NNW 18:03:22 10° NNE visible
25 Feb - 19:38:46 10° NW 19:42:33 18° N 19:46:10 10° NE visible
25 Feb - 21:21:42 10° NNW 21:26:14 27° NNE 21:30:29 10° E visible
25 Feb - 23:03:41 10° NW 23:08:57 83° NE 23:13:44 10° SE visible
26 Feb - 00:46:38 10° WNW 00:50:11 19° WSW 00:53:29 10° SSW night (unlit)
26 Feb - 13:39:11 10° SE 13:42:50 17° ESE 13:46:27 10° ENE daylight
26 Feb - 15:18:13 10° SSW 15:24:03 76° SE 15:29:39 10° NE daylight
26 Feb - 17:01:15 10° W 17:06:29 35° NNW 17:11:30 10° NNE daylight
26 Feb - 18:46:02 10° NW 18:49:59 19° N 18:53:45 10° NE visible
26 Feb - 20:29:41 10° NNW 20:33:49 21° NNE 20:37:41 10° ENE visible
26 Feb - 22:11:48 10° NW 22:16:58 50° NE 22:21:39 10° ESE visible
26 Feb - 23:54:06 10° NW 23:58:45 35° WSW 00:03:00 10° S visible
27 Feb - 14:26:47 10° S 14:32:18 45° ESE 14:37:38 10° NE daylight
27 Feb - 16:08:40 10° WSW 16:14:17 50° NW 16:19:41 10° NE daylight
27 Feb - 17:53:06 10° WNW 17:57:27 22° NNW 18:01:37 10° NNE visible
27 Feb - 19:37:27 10° NW 19:41:17 19° N 19:44:54 10° NE visible
27 Feb - 21:19:56 10° NNW 21:24:47 34° NNE 21:29:13 10° E visible
27 Feb - 23:01:58 10° NW 23:07:07 66° SW 23:11:46 10° SSE visible
28 Feb - 00:46:17 10° W 00:47:54 12° WSW 00:49:28 10° WSW night (unlit)
28 Feb - 13:35:59 10° SSE 13:40:43 26° ESE 13:45:20 10° ENE daylight
28 Feb - 15:16:25 10° SW 15:22:16 77° NW 15:27:51 10° NE daylight
28 Feb - 17:00:10 10° W 17:05:01 28° NNW 17:09:40 10° NNE daylight
28 Feb - 18:44:55 10° NW 18:48:41 18° N 18:52:17 10° NE visible
28 Feb - 20:28:02 10° NNW 20:32:26 25° NNE 20:36:32 10° E visible
28 Feb - 22:10:01 10° NW 22:15:16 73° NE 22:20:01 10° SE visible
28 Feb - 23:52:44 10° WNW 23:56:37 22° WSW 00:00:14 10° SSW visible
29 Feb - 12:46:15 10° SE 12:49:19 15° ESE 12:52:21 10° ENE daylight
29 Feb - 14:24:37 10° SSW 14:30:24 66° SE 14:35:56 10° NE daylight
29 Feb - 16:07:22 10° WSW 16:12:43 38° NW 16:17:48 10° NNE daylight
29 Feb - 17:52:06 10° WNW 17:56:07 20° NNW 17:59:57 10° NE daylight
29 Feb - 19:35:58 10° NNW 19:39:57 20° NNE 19:43:43 10° ENE visible
29 Feb - 21:18:09 10° NW 21:23:13 45° NE 21:27:49 10° ESE visible
29 Feb - 23:00:21 10° NW 23:05:08 41° WSW 23:09:31 10° S visible
01 Mar - 13:33:20 10° S 13:38:41 39° ESE 13:43:51 10° NE daylight
01 Mar - 15:14:52 10° WSW 15:20:34 56° NW 15:25:59 10° NE daylight
01 Mar - 16:59:09 10° WNW 17:03:36 23° NNW 17:07:52 10° NNE daylight
01 Mar - 18:43:40 10° NW 18:47:24 18° N 18:50:57 10° NE visible
01 Mar - 20:26:17 10° NNW 20:30:58 31° NNE 20:35:18 10° E visible
01 Mar - 22:08:16 10° NW 22:13:26 76° SW 22:18:07 10° SSE visible
01 Mar - 23:51:55 10° WNW 23:54:23 14° WSW 23:56:44 10° SW visible
02 Mar - 12:42:45 10° SSE 12:47:08 23° ESE 12:51:26 10° ENE daylight
02 Mar - 14:22:44 10° SW 14:28:34 87° NW 14:34:08 10° NE daylight
02 Mar - 16:06:14 10° W 16:11:12 30° NNW 16:15:56 10° NNE daylight
02 Mar - 17:51:03 10° NW 17:54:49 18° N 17:58:24 10° NE daylight
02 Mar - 19:34:20 10° NNW 19:38:35 23° NNE 19:42:34 10° ENE visible
02 Mar - 21:16:21 10° NW 21:21:32 63° NE 21:26:14 10° SE visible
02 Mar - 22:58:54 10° WNW 23:03:02 26° WSW 23:06:53 10° SSW visible
03 Mar - 11:53:33 10° SE 11:55:47 12° ESE 11:58:00 10° E daylight
03 Mar - 13:31:02 10° SSW 13:36:44 58° ESE 13:42:12 10° NE daylight
03 Mar - 15:13:30 10° WSW 15:18:57 41° NW 15:24:06 10° NNE daylight
03 Mar - 16:58:10 10° WNW 17:02:15 20° NNW 17:06:09 10° NNE daylight
03 Mar - 18:42:14 10° NW 18:46:05 19° NNE 18:49:44 10° ENE visible
03 Mar - 20:24:29 10° NNW 20:29:26 40° NE 20:33:57 10° ESE visible
03 Mar - 22:06:36 10° NW 22:11:29 49° WSW 22:15:58 10° SSE visible
